Temperature
17 17 17 17 17 17 18 19 21 20 20 19 19 20 19 17 17 15 13 13 13 13 13 13 13 13 13 13 13 13 13 13 13 13 13 14 14 14 14 14 14 14 14 14 14 14 14 14 14
16 16 16 17 17 17 18 19 20 19 19 18 18 19 18 16 14 13 12 12 12 12 12 13 12 12 13 13 13 13 13 13 13 13 13 13 13 14 14 14 14 13 13 14 14 14 14 14 14
16 16 17 17 17 17 18 19 19 18 18 18 18 17 16 14 13 12 12 12 12 12 12 12 12 12 12 12 12 12 13 13 13 13 13 13 13 13 13 13 13 13 13 13 13 13 14 14 14
15 16 17 16 17 18 19 18 18 18 18 18 17 16 14 13 12 12 12 12 12 12 12 12 12 12 12 12 12 12 12 12 13 13 13 13 13 13 13 13 13 13 13 13 13 13 13 13 13
15 16 16 16 17 18 18 18 18 18 17 17 17 16 13 12 12 12 12 11 11 11 11 12 12 12 12 12 12 12 12 12 12 12 12 12 12 12 12 12 13 13 13 13 13 13 13 13 13
15 16 16 16 17 18 18 18 18 18 17 17 17 16 12 11 12 11 11 11 11 11 11 11 11 11 11 12 12 12 12 12 12 12 12 12 12 12 12 12 12 12 12 12 13 13 13 13 13
15 15 16 17 17 17 17 17 17 17 16 15 15 15 12 11 11 11 11 11 10 10 11 11 11 11 11 11 11 11 11 11 11 11 11 12 12 12 12 12 12 12 12 12 12 12 12 12 12
15 15 16 16 17 17 17 16 16 15 15 14 14 14 11 10 11 10 10 10 10 10 10 11 11 11 11 11 11 11 11 11 11 11 11 11 11 11 11 11 11 11 11 12 12 12 12 12 12
15 14 14 16 16 15 16 16 15 14 14 13 12 12 11 11 10 10 10 10 10 10 10 10 10 10 10 10 10 10 10 10 11 11 11 11 11 11 11 11 11 11 11 11 11 11 12 12 12
14 13 14 15 15 15 15 15 14 14 13 12 11 10 10 10 10 9 9 9 9 9 9 10 10 10 10 10 10 10 10 10 10 10 10 10 10 10 10 11 11 11 11 11 11 11 11 11 11
14 13 14 14 14 14 14 13 13 13 12 12 11 10 10 9 9 9 9 9 9 9 9 9 9 9 9 9 10 10 10 10 10 10 10 10 10 10 10 10 10 10 10 10 10 10 11 11 11
13 13 13 13 12 13 13 13 12 12 12 11 11 10 10 9 9 8 8 8 8 8 9 9 9 9 9 9 9 9 9 9 9 10 10 9 9 9 10 10 10 10 10 10 10 10 10 10 11
12 12 11 11 11 11 12 12 11 11 11 11 10 10 9 9 8 8 8 8 8 8 8 9 9 9 9 9 9 9 9 9 9 9 9 9 9 9 9 9 9 9 9 9 9 9 10 10 10
12 11 11 11 11 11 10 11 10 10 11 10 9 9 8 8 8 8 7 7 7 8 8 8 8 8 8 8 8 8 8 8 8 8 9 9 9 9 9 9 9 9 9 9 9 9 9 9 10
11 10 10 11 11 10 10 9 9 10 10 10 9 8 8 7 7 7 7 7 7 7 7 8 8 8 8 8 8 8 8 8 8 8 8 8 8 8 8 8 8 8 8 8 9 9 9 9 9
11 10 10 10 10 10 9 9 10 10 10 9 9 8 8 7 7 7 7 7 7 7 7 7 7 7 7 7 7 7 7 7 7 7 8 8 8 8 8 8 8 8 8 8 8 8 8 8 8
10 10 11 10 10 10 9 8 9 9 9 9 9 8 7 7 6 6 6 6 6 6 6 6 6 7 7 7 7 7 7 7 7 7 7 7 7 7 7 7 7 7 7 8 8 8 8 8 8
10 11 11 11 10 10 8 8 8 9 9 8 8 8 7 6 6 6 5 5 5 5 6 6 6 6 6 6 6 6 7 6 6 6 6 6 6 6 6 7 7 7 7 7 7 7 7 7 7
10 10 10 10 9 9 8 8 8 8 8 8 8 8 7 6 6 5 5 5 5 5 5 5 5 5 5 5 6 6 6 6 6 6 6 6 6 6 6 6 6 6 6 6 6 6 6 6 6
10 9 9 9 9 8 8 7 8 8 7 7 7 7 6 6 5 5 5 5 5 4 4 5 5 5 5 5 5 5 5 5 5 5 5 5 5 5 5 6 6 6 6 6 6 6 6 6 6
9 8 8 8 7 8 7 7 8 8 8 7 7 7 6 6 5 4 4 4 4 4 4 4 4 4 4 4 5 4 4 4 5 5 5 4 4 4 5 5 5 5 5 5 5 5 5 5 5
7 7 7 7 6 6 7 6 7 7 6 6 6 6 6 5 5 4 4 3 4 4 3 4 4 4 4 4 4 4 4 4 4 4 4 4 4 4 4 4 4 5 5 5 5 5 5 5 5
6 6 6 6 6 5 6 5 6 7 6 5 5 5 5 5 4 4 3 3 3 3 3 3 3 3 3 3 3 3 3 3 3 3 3 4 4 3 3 3 4 4 4 4 4 4 4 4 4
6 6 6 5 5 4 6 6 6 6 6 6 5 5 5 4 4 3 3 3 2 2 2 3 2 2 3 2 2 2 3 3 3 3 3 3 3 3 3 3 3 3 3 3 3 3 3 3 3
5 5 5 5 5 5 6 5 5 6 6 5 5 4 4 4 3 3 2 2 2 2 2 2 2 2 2 2 2 2 2 2 2 2 2 3 3 3 3 3 3 3 3 3 3 3 3 3 3
5 5 5 5 6 6 5 4 5 5 5 5 5 4 4 3 3 2 2 2 2 1 1 1 1 1 1 2 2 1 2 2 2 2 2 2 2 2 2 2 2 2 2 2 2 2 2 2 2
5 4 5 4 4 4 5 5 5 4 4 4 3 3 3 2 2 1 1 1 1 1 1 1 1 1 1 1 1 1 1 1 1 1 1 1 1 1 2 2 2 2 2 2 2 1 2 2 2
3 4 3 3 4 4 6 6 5 3 3 3 2 2 2 2 1 1 0 0 0 0 0 0 0 0 0 0 0 1 1 1 1 1 1 1 1 1 1 1 1 1 1 1 1 1 1 1 1
2 2 3 3 3 4 4 5 4 3 2 2 2 2 2 1 1 0 0 -0 -0 -0 -0 -0 -0 -0 -0 -0 -0 0 0 0 0 0 1 0 0 1 1 1 1 1 1 1 1 1 1 1 1
2 2 2 2 2 3 3 3 2 2 2 1 1 1 1 1 0 0 -0 -0 -0 -1 -1 -1 -1 -1 -1 -1 -1 -0 -0 -0 -0 -0 -0 -0 -0 0 0 0 0 0 0 0 0 0 0 -0 0
Wind_Speed
12 10 5 2 2 3 4 2 1 2 2 5 6 4 5 6 5 6 3 6 6 7 9 9 7 8 8 9 9 9 9 9 9 9 9 10 10 10 11 11 12 12 12 12 13 13 13 14 13
10 5 3 3 3 4 4 3 1 3 5 4 4 4 4 7 7 7 4 5 5 7 9 8 8 8 8 9 9 9 9 8 8 9 9 9 9 10 10 11 11 11 11 12 12 12 13 13 12
7 5 3 3 3 4 2 3 4 5 5 3 3 4 5 5 6 4 4 3 6 7 9 9 8 8 8 8 9 9 9 8 8 8 9 9 9 10 10 10 10 10 10 11 11 11 12 12 11
3 3 3 3 6 3 1 3 4 4 3 3 2 5 5 7 4 4 3 4 6 7 9 9 8 7 7 8 8 8 8 8 8 8 8 8 8 9 9 9 9 10 10 10 10 10 11 11 10
3 3 4 5 7 3 1 3 3 3 3 2 1 4 5 5 7 6 4 5 6 7 9 9 8 7 7 7 7 7 7 7 7 7 7 7 8 8 8 8 9 9 9 9 9 10 9 10 9
3 3 5 7 7 4 3 1 1 2 3 2 0 3 6 5 6 5 5 5 6 7 8 8 8 8 7 7 7 6 6 6 6 6 6 7 7 7 7 8 8 8 8 8 8 9 9 9 8
3 3 5 6 6 4 3 1 0 0 2 1 1 2 6 5 5 4 4 5 7 8 8 7 7 7 7 7 6 6 5 6 5 5 6 6 6 7 7 7 7 7 8 8 8 8 7 7 7
3 2 5 6 6 4 2 2 1 2 1 2 3 2 4 3 4 4 4 5 6 7 7 6 6 6 6 5 6 6 5 5 5 5 6 6 6 7 7 6 6 6 7 7 7 7 6 5 5
4 3 5 5 4 1 1 2 2 1 2 3 4 5 5 7 5 4 4 4 5 5 5 5 5 5 5 4 4 5 5 5 6 5 5 5 5 5 5 5 5 5 5 6 6 6 5 4 3
3 4 5 1 2 0 1 0 2 3 2 2 3 5 7 6 5 4 3 3 3 4 4 4 5 4 3 3 3 3 3 4 4 5 4 3 4 4 4 5 5 4 5 5 4 4 3 3 3
2 4 1 2 4 2 0 0 0 3 3 3 3 5 5 4 4 3 2 2 2 3 3 4 4 4 4 3 2 2 3 3 3 4 4 3 3 3 4 4 4 4 4 3 3 3 3 3 3
3 2 2 2 3 3 1 1 1 3 1 1 3 7 6 4 3 3 2 2 2 2 2 3 4 4 4 4 2 2 2 2 3 3 3 3 3 3 3 3 3 3 2 2 2 2 2 3 3
5 3 1 1 1 2 2 2 3 4 1 2 4 6 6 4 3 3 2 2 2 2 2 2 3 3 3 3 3 2 2 2 3 3 2 3 3 3 3 3 2 2 2 2 1 2 2 3 3
1 2 3 3 3 2 2 4 3 5 3 4 5 5 5 4 3 3 2 2 2 1 1 2 2 3 3 3 3 3 3 2 3 4 3 3 3 3 3 3 3 2 2 1 1 2 2 2 2
3 4 5 6 5 2 1 6 8 6 4 4 5 5 5 4 3 3 3 2 2 1 1 1 1 3 3 3 3 3 3 3 3 3 3 3 4 3 3 2 2 2 2 1 1 2 2 2 3
5 5 6 5 5 5 4 7 4 5 6 5 5 5 5 4 4 3 3 2 2 1 1 1 1 2 3 3 3 3 3 3 4 4 4 3 3 3 3 2 1 2 2 1 1 1 1 1 2
6 6 6 5 6 5 6 6 2 5 6 6 5 4 4 4 3 3 3 3 2 2 1 1 2 2 2 2 2 2 2 3 3 4 4 4 3 3 3 2 2 1 1 1 1 1 1 1 1
4 5 5 5 5 6 8 8 5 4 6 5 4 4 3 3 3 3 3 3 2 2 2 1 2 2 2 2 2 1 2 2 3 3 4 3 3 3 3 2 2 1 1 1 1 1 2 1 1
4 5 7 4 2 4 8 10 8 6 5 5 4 4 4 3 3 4 3 3 3 2 2 1 2 1 1 1 1 0 0 1 1 2 3 3 2 3 3 2 2 1 1 1 1 2 2 1 1
6 7 6 2 1 3 6 9 8 7 6 5 5 4 4 3 3 3 3 3 3 2 2 2 2 1 1 0 0 0 0 0 1 1 2 2 2 2 2 2 1 1 1 2 2 2 1 1 1
6 5 4 4 4 4 5 7 6 4 5 5 4 3 4 4 4 3 3 2 2 2 2 1 1 1 1 1 1 1 1 1 0 0 0 1 1 2 2 2 2 1 2 2 2 2 2 2 1
4 2 3 4 4 4 3 5 5 6 5 6 5 3 3 3 3 4 3 3 3 2 2 1 1 1 1 1 1 1 1 1 1 1 0 0 1 2 2 2 1 1 1 2 2 2 2 2 2
1 2 3 4 5 5 5 5 5 5 6 6 5 4 3 3 4 3 3 3 2 2 2 2 2 1 1 1 1 1 1 0 0 0 1 1 1 1 1 1 1 1 1 1 2 2 2 2 2
1 2 3 3 2 6 7 7 6 4 5 5 5 4 3 3 3 3 2 2 2 2 2 2 3 1 1 1 1 1 1 0 0 0 1 1 1 1 1 0 1 1 1 1 1 2 2 2 2
2 0 1 1 3 6 5 6 6 3 3 4 5 4 4 3 3 2 2 2 1 1 2 2 2 1 1 1 1 1 1 1 1 1 2 1 1 0 1 0 0 0 1 0 1 1 2 2 2
3 3 3 4 4 3 3 7 4 4 3 4 3 3 3 3 2 2 2 2 1 1 2 2 2 1 1 2 2 1 1 1 1 1 1 2 1 1 1 0 0 0 1 1 0 0 1 2 2
2 3 1 1 3 4 6 4 3 4 3 4 3 2 2 3 2 2 1 1 1 2 2 2 2 1 1 1 1 1 1 1 1 1 1 1 1 1 1 1 1 0 1 0 1 0 1 1 2
2 1 1 3 3 6 6 6 4 4 3 3 4 3 2 2 2 2 1 1 1 1 1 1 1 1 1 1 1 1 1 1 1 1 1 1 1 1 2 2 1 1 1 1 1 0 0 0 1
2 2 3 3 4 4 4 4 1 4 4 3 3 3 2 2 1 1 1 1 1 1 1 1 1 0 0 1 1 1 1 1 1 1 1 1 1 2 2 2 2 2 1 1 1 0 0 0 1
1 3 4 3 5 4 4 4 3 4 3 2 2 2 2 2 1 1 1 2 1 1 1 0 0 0 1 1 1 1 1 1 1 1 1 1 1 2 2 2 2 2 1 1 1 1 1 2 2
Wind_Direction
301 275 257 270 250 227 233 230 183 109 65 35 26 22 43 43 41 100 108 56 75 99 110 119 112 106 105 101 97 94 90 86 84 82 80 77 76 72 69 66 66 71 71 69 68 68 67 68 70
295 286 266 243 241 224 222 199 141 83 75 61 45 18 59 73 67 92 72 47 67 95 108 116 112 107 106 103 99 95 92 89 88 85 84 82 78 75 72 69 68 71 73 70 69 68 66 67 69
282 270 258 243 243 239 221 105 108 93 86 73 71 36 37 62 71 78 59 53 66 82 98 106 109 110 109 106 103 99 96 94 90 87 86 86 84 80 75 73 72 71 75 73 70 69 66 66 69
277 242 242 241 242 252 263 76 90 109 105 71 76 94 75 53 55 69 68 68 71 75 92 103 103 104 108 108 107 104 101 95 92 91 89 89 87 83 75 74 73 72 74 76 73 69 67 65 67
246 243 222 231 240 234 69 64 112 131 136 133 133 108 97 74 61 68 67 73 73 72 83 98 98 94 98 105 108 108 105 99 94 96 94 90 88 83 76 72 73 74 73 76 76 69 67 65 66
245 239 227 228 230 201 158 141 136 125 127 123 81 114 102 88 66 62 63 67 75 76 78 91 94 90 89 91 99 108 108 105 97 97 99 95 90 86 80 74 72 75 74 77 78 73 67 61 62
254 247 242 242 237 214 179 162 11 142 122 93 355 94 113 87 65 64 69 66 72 74 76 80 83 88 90 88 88 98 109 105 101 98 99 98 93 88 84 79 75 74 75 78 81 77 69 62 65
287 277 245 242 238 231 157 139 94 5 80 34 15 65 118 101 81 77 73 67 65 62 65 70 79 81 79 82 88 90 100 103 102 99 102 100 93 90 85 81 79 77 77 79 79 77 72 67 66
268 241 237 240 240 213 145 143 123 56 91 78 46 42 81 110 102 87 77 71 67 58 52 53 59 70 80 85 89 96 99 102 102 99 108 111 101 101 96 92 88 86 84 84 82 77 71 70 68
240 228 236 296 339 26 111 95 138 156 165 166 91 69 88 108 108 107 101 92 81 66 50 48 46 50 64 81 94 97 97 101 92 85 86 100 103 106 110 110 105 98 95 95 87 74 62 63 70
237 236 241 351 4 1 326 358 30 200 208 194 162 135 122 120 122 124 119 105 97 85 63 49 42 36 36 56 87 90 91 97 97 93 80 76 89 104 103 100 91 88 87 79 73 69 58 61 75
241 275 314 321 347 333 297 269 262 250 200 75 121 137 137 141 137 126 115 94 82 78 64 53 45 41 32 37 47 77 84 86 82 85 83 70 71 67 77 93 94 87 83 72 53 48 49 54 68
230 237 261 306 306 307 318 258 254 257 170 115 110 121 137 150 145 129 114 99 82 70 56 47 43 44 34 37 32 38 71 91 96 95 87 78 72 64 59 66 86 93 82 70 38 45 42 51 62
191 206 234 241 240 248 248 259 244 246 181 157 142 143 149 157 148 128 111 105 92 75 56 42 34 38 40 41 32 33 49 84 98 94 86 87 78 69 67 60 57 69 79 71 63 56 52 60 67
216 224 234 227 221 204 250 258 229 226 181 186 163 163 156 160 151 145 143 141 137 132 90 48 42 41 41 40 33 36 52 58 79 94 105 94 86 83 82 80 64 47 61 83 81 66 67 65 63
218 225 233 207 202 184 208 253 219 188 193 204 184 175 167 166 160 151 143 140 133 122 100 64 37 47 44 40 31 37 54 58 64 75 87 83 86 85 82 87 84 56 51 50 92 99 74 64 55
210 233 233 200 207 195 212 249 205 190 199 206 198 183 169 162 153 144 139 131 121 113 107 83 60 64 48 46 38 42 60 54 66 64 72 72 72 79 75 81 70 69 68 53 89 97 112 101 71
231 245 247 227 199 206 222 241 237 207 198 207 201 177 163 161 160 139 131 124 118 110 112 108 80 62 56 59 44 43 58 52 68 69 70 66 65 62 66 79 70 58 90 70 55 76 74 95 93
272 265 264 260 189 229 236 248 246 222 204 196 197 184 175 170 147 138 136 137 127 114 112 112 106 88 79 82 77 12 359 352 45 56 71 56 53 63 64 69 97 88 126 140 128 105 95 72 67
265 262 268 284 189 250 262 264 248 218 201 190 191 188 179 159 133 132 134 129 134 143 146 140 133 135 131 108 286 244 320 251 99 55 87 67 45 53 80 75 111 125 131 126 124 112 128 145 114
261 259 269 289 300 252 275 275 223 194 178 180 191 185 171 164 165 160 151 144 134 136 154 149 145 145 127 95 69 75 39 26 42 17 94 57 65 47 52 81 88 135 158 167 164 156 155 171 184
255 310 301 283 281 261 211 274 237 186 184 195 199 198 194 168 152 155 160 162 156 155 148 139 144 138 128 113 140 150 173 215 252 229 189 131 92 78 56 56 83 100 143 162 179 171 175 167 183
261 327 281 265 266 281 232 243 260 181 205 208 195 197 195 159 149 152 152 157 150 151 154 150 142 131 115 128 178 187 221 257 321 127 156 148 128 103 79 59 67 73 96 153 171 171 181 182 180
252 279 268 249 246 261 222 214 258 205 199 188 180 178 167 147 137 128 111 115 120 125 138 146 149 155 137 175 220 205 203 157 8 261 186 169 157 150 106 78 102 82 83 120 172 177 176 179 180
234 156 329 273 233 243 194 211 240 177 141 155 164 160 151 136 135 134 128 134 144 146 147 151 149 172 173 202 234 241 219 200 205 223 188 173 167 157 189 27 230 132 95 62 66 172 181 177 184
225 207 192 228 250 270 231 230 228 164 127 115 116 136 131 136 135 136 139 145 153 171 170 168 163 197 196 206 233 241 234 217 235 238 205 187 189 187 185 184 306 47 78 52 59 311 222 185 191
210 217 209 236 279 272 244 230 228 167 175 167 163 152 147 142 129 128 121 126 140 168 190 193 181 200 209 220 222 220 220 254 257 256 222 176 166 173 165 170 167 85 96 150 174 226 260 201 195
302 279 151 191 234 259 257 228 218 200 212 193 168 161 156 145 134 130 133 114 110 127 144 139 159 176 203 230 229 248 227 249 253 232 240 192 161 155 164 180 183 179 182 194 181 209 218 312 231
183 205 221 229 231 231 265 257 308 167 169 178 169 154 151 130 137 157 149 130 100 68 61 62 66 83 198 264 254 238 246 260 257 234 229 185 175 175 178 188 190 186 186 191 206 214 195 239 296
220 208 185 200 240 226 258 269 28 78 91 105 106 101 114 119 127 153 131 114 99 81 51 11 350 265 262 253 251 240 244 240 232 247 244 217 195 198 194 195 192 197 194 198 192 231 237 225 237
Height
1504 1505 1507 1509 1510 1512 1511 1504 1499 1501 1503 1506 1507 1507 1510 1514 1519 1529 1529 1527 1527 1528 1529 1530 1532 1532 1533 1534 1535 1536 1537 1537 1538 1539 1539 1540 1541 1541 1542 1542 1543 1543 1544 1544 1545 1545 1545 1545 1545
1504 1506 1508 1508 1510 1514 1510 1501 1501 1503 1506 1508 1509 1510 1512 1517 1521 1525 1526 1526 1527 1528 1529 1530 1532 1533 1533 1534 1535 1536 1537 1538 1538 1539 1540 1540 1541 1542 1542 1543 1543 1544 1544 1545 1546 1546 1546 1546 1547
1504 1506 1508 1506 1507 1509 1506 1501 1503 1505 1507 1509 1511 1513 1516 1521 1523 1525 1526 1527 1527 1528 1529 1530 1532 1533 1533 1534 1535 1536 1537 1538 1539 1539 1540 1541 1541 1542 1543 1543 1544 1544 1545 1545 1546 1547 1547 1547 1548
1505 1507 1508 1508 1507 1502 1501 1502 1503 1506 1508 1510 1512 1516 1519 1523 1524 1524 1525 1527 1527 1528 1529 1530 1531 1532 1533 1534 1535 1536 1537 1538 1539 1539 1540 1541 1542 1542 1543 1543 1544 1545 1545 1546 1546 1547 1547 1548 1549
1505 1506 1507 1508 1505 1501 1501 1503 1504 1506 1509 1511 1513 1516 1521 1523 1523 1524 1525 1526 1527 1528 1529 1530 1531 1532 1533 1534 1535 1536 1537 1538 1538 1539 1540 1541 1542 1542 1543 1544 1544 1545 1545 1546 1546 1547 1548 1548 1549
1506 1503 1507 1507 1502 1500 1502 1504 1505 1507 1509 1511 1513 1516 1521 1522 1522 1523 1524 1526 1527 1527 1528 1530 1531 1532 1533 1534 1535 1536 1537 1537 1538 1539 1540 1540 1541 1542 1543 1543 1544 1544 1545 1546 1546 1547 1548 1548 1549
1505 1503 1503 1501 1501 1500 1502 1504 1506 1507 1510 1513 1514 1516 1520 1521 1521 1523 1524 1526 1526 1527 1528 1529 1530 1531 1532 1533 1534 1535 1536 1537 1538 1539 1539 1540 1541 1542 1542 1543 1543 1544 1545 1545 1546 1547 1548 1548 1549
1502 1502 1501 1500 1500 1501 1503 1504 1507 1509 1511 1513 1514 1516 1519 1520 1521 1522 1524 1525 1526 1527 1527 1528 1529 1530 1531 1532 1533 1534 1535 1536 1537 1538 1539 1540 1540 1541 1542 1542 1543 1543 1544 1545 1545 1546 1547 1548 1549
1502 1504 1502 1499 1500 1502 1503 1505 1507 1510 1511 1513 1515 1517 1517 1518 1519 1521 1522 1523 1524 1526 1527 1527 1529 1530 1530 1531 1532 1533 1534 1535 1536 1537 1538 1539 1539 1540 1541 1541 1542 1543 1543 1544 1545 1546 1546 1547 1548
1500 1503 1500 1499 1500 1502 1504 1505 1507 1509 1511 1513 1515 1516 1516 1517 1518 1519 1520 1521 1522 1524 1525 1526 1527 1528 1529 1530 1531 1532 1533 1534 1535 1536 1536 1537 1538 1539 1539 1540 1541 1542 1542 1543 1544 1545 1545 1546 1547
1499 1499 1499 1501 1502 1503 1504 1506 1507 1508 1510 1512 1513 1514 1515 1516 1517 1518 1519 1520 1521 1522 1524 1525 1526 1527 1528 1529 1530 1530 1531 1532 1533 1534 1535 1536 1537 1537 1538 1539 1539 1540 1541 1542 1543 1543 1544 1545 1546
1499 1500 1501 1502 1503 1504 1505 1506 1508 1508 1510 1510 1511 1512 1513 1514 1515 1516 1518 1518 1520 1521 1522 1523 1525 1526 1527 1527 1528 1529 1530 1530 1531 1532 1533 1534 1535 1536 1536 1537 1538 1539 1539 1540 1541 1542 1543 1544 1545
1499 1500 1502 1503 1504 1504 1505 1506 1507 1508 1508 1509 1510 1511 1511 1513 1514 1515 1517 1517 1518 1519 1520 1521 1523 1524 1525 1526 1526 1527 1528 1529 1530 1531 1532 1532 1533 1534 1534 1535 1536 1537 1538 1538 1539 1540 1541 1542 1543
1499 1500 1502 1503 1503 1504 1505 1506 1507 1505 1506 1508 1508 1509 1510 1512 1513 1514 1515 1515 1516 1517 1517 1519 1520 1521 1523 1523 1524 1525 1526 1527 1528 1528 1529 1530 1531 1532 1533 1533 1534 1535 1536 1536 1537 1538 1539 1540 1541
1500 1501 1501 1501 1502 1503 1505 1505 1503 1502 1504 1506 1507 1508 1509 1510 1511 1512 1512 1513 1514 1515 1515 1516 1518 1519 1520 1521 1522 1523 1523 1524 1525 1526 1527 1528 1529 1529 1530 1531 1532 1532 1533 1534 1535 1536 1537 1538 1539
1498 1500 1500 1498 1500 1502 1507 1504 1499 1500 1502 1503 1505 1506 1507 1508 1509 1510 1511 1512 1512 1513 1513 1514 1515 1516 1517 1518 1519 1520 1521 1522 1523 1524 1524 1525 1526 1527 1528 1528 1529 1530 1531 1532 1532 1534 1535 1536 1537
1497 1498 1495 1498 1497 1498 1502 1501 1499 1498 1499 1501 1502 1504 1505 1506 1507 1508 1509 1510 1510 1511 1511 1512 1513 1514 1515 1516 1517 1518 1518 1519 1520 1521 1522 1522 1523 1524 1525 1526 1526 1527 1528 1529 1530 1531 1532 1533 1534
1496 1493 1492 1494 1495 1496 1499 1498 1497 1496 1497 1498 1500 1501 1502 1504 1505 1506 1507 1507 1508 1508 1509 1510 1511 1512 1513 1513 1514 1515 1516 1517 1518 1518 1518 1520 1520 1521 1522 1523 1523 1524 1525 1525 1526 1528 1529 1530 1531
1492 1492 1493 1492 1493 1495 1496 1495 1494 1493 1494 1495 1497 1498 1500 1501 1503 1504 1505 1505 1505 1506 1506 1507 1508 1509 1510 1510 1511 1512 1512 1513 1514 1514 1515 1516 1517 1518 1519 1519 1520 1521 1522 1523 1523 1525 1526 1527 1528
1492 1494 1493 1493 1494 1494 1494 1493 1489 1489 1490 1492 1494 1496 1497 1499 1500 1500 1501 1502 1502 1503 1504 1504 1505 1506 1507 1508 1509 1510 1510 1511 1511 1512 1513 1513 1514 1515 1515 1516 1517 1518 1519 1520 1521 1521 1523 1525 1526
1493 1494 1494 1497 1496 1494 1496 1492 1486 1486 1487 1490 1492 1493 1495 1496 1497 1498 1498 1499 1499 1500 1501 1501 1502 1503 1504 1505 1506 1507 1508 1508 1508 1509 1509 1510 1511 1511 1512 1513 1514 1515 1516 1517 1518 1519 1520 1522 1524
1495 1495 1495 1497 1501 1498 1496 1499 1486 1484 1487 1487 1489 1491 1492 1493 1494 1495 1496 1496 1496 1498 1498 1498 1499 1500 1501 1502 1503 1503 1504 1504 1505 1506 1506 1507 1508 1509 1509 1510 1511 1512 1513 1514 1515 1516 1518 1519 1520
1495 1495 1496 1498 1500 1501 1495 1500 1488 1482 1485 1485 1486 1488 1489 1490 1491 1492 1493 1493 1494 1495 1496 1496 1496 1497 1498 1499 1500 1501 1501 1502 1503 1503 1504 1504 1505 1506 1507 1508 1508 1509 1509 1510 1512 1513 1515 1516 1517
1496 1497 1497 1498 1501 1504 1493 1496 1487 1482 1480 1481 1483 1485 1486 1488 1489 1490 1491 1491 1492 1492 1493 1493 1494 1494 1495 1496 1497 1498 1499 1499 1500 1500 1500 1501 1502 1503 1504 1505 1506 1506 1507 1508 1509 1510 1512 1513 1514
1497 1501 1504 1502 1502 1495 1487 1491 1486 1478 1477 1478 1480 1482 1484 1486 1487 1487 1488 1488 1489 1489 1490 1490 1491 1491 1492 1494 1495 1495 1496 1496 1497 1497 1497 1498 1498 1499 1501 1502 1502 1503 1504 1505 1505 1507 1508 1509 1511
1496 1497 1502 1503 1495 1489 1489 1489 1481 1476 1476 1477 1479 1481 1482 1483 1484 1485 1485 1486 1486 1487 1487 1488 1488 1489 1490 1491 1492 1493 1493 1494 1494 1495 1495 1495 1495 1497 1498 1499 1499 1500 1501 1502 1503 1504 1505 1506 1507
1496 1497 1497 1502 1501 1500 1487 1479 1477 1476 1476 1476 1477 1479 1480 1481 1482 1483 1483 1483 1484 1484 1485 1485 1485 1486 1487 1488 1489 1490 1490 1491 1491 1492 1492 1493 1493 1494 1495 1496 1496 1497 1498 1499 1500 1500 1501 1502 1503
1497 1496 1501 1502 1501 1494 1479 1475 1477 1477 1476 1476 1476 1478 1479 1480 1480 1481 1481 1482 1482 1482 1482 1483 1483 1483 1484 1485 1486 1486 1487 1488 1488 1489 1489 1490 1491 1492 1492 1493 1493 1494 1494 1495 1496 1497 1498 1499 1500
1500 1500 1499 1498 1496 1495 1488 1482 1474 1473 1474 1476 1476 1477 1478 1478 1479 1479 1480 1480 1480 1480 1480 1480 1480 1481 1481 1482 1483 1483 1484 1484 1485 1485 1486 1487 1488 1488 1489 1489 1490 1490 1491 1492 1493 1494 1495 1495 1496
1497 1497 1499 1502 1498 1494 1492 1487 1476 1474 1474 1475 1476 1476 1477 1477 1477 1477 1477 1477 1478 1478 1478 1478 1478 1478 1478 1479 1479 1480 1481 1481 1482 1482 1482 1483 1484 1485 1485 1486 1486 1487 1487 1488 1489 1490 1491 1492 1492